Airfield :
LOGIN :

Register | Disclaimer

   EN    FR    IT 

 










Legend :    VFR   Marginal VFR   IFR   Intensive IFR   Very Intensive IFR
Visi :
Ceiling :
>= 8 km
>= 3000ft
5 to 8 km
1000 to 3000 ft
1500m to 5 km
500 to 1000 ft
800 to 1500m
200 to 500 ft
< 800m
< 200 ft
Symbols :   Thunderstorms  Fog  Heavy snow  Heavy precipitations  Wind > 20 kt
SIGMETs :     Misc.  Thunderstorms  Icing  Turbulence  Mountain Waves  Volcanic Ashes






- Airport Elevation : 20 ft
- IATA code : OIZ


DTTB - Sidi Ahmed Air Base

CURRENT METAR :
  • 171800Z 10007KT 070V130 8000 SCT020 28/21 Q1012

EXPIRED METARs :
  • 171700Z 10008KT 0800 SCT020 30/19 Q1011

TAF TAF DTTB
Valid from the 17 at 19:00 until the 18 at 04:00 UTC


171800Z 1719/1804 10008KT 8000 SCT020
PROB30
TEMPO 1719/1721 TSRA FEW026CB
BECMG 1720/1722 30010KT



MET'MAP, your aeronautical weather chart ! - Copyright ORBIFLY December 2007 - Disclaimer

ORBIFLY MET'MAP TEAM :

Programming & Development : Alexandra Zaïnal
Concept & original design : Baudouin d'Aumeries
Assistance for programming : Marc-Olivier Méhu
Technical & hardware support : Manuel Goepfert

Contact : metmap@orbifly.com




SOURCES & CREDITS :

   NOAA